Home > Weather > Lódz > Past weeks

Flag for Poland Past Weather in Lódz, Poland — Yesterday and Last 2 Weeks

Now
69 °F

Overcast.


Feels Like: 69 °F
Forecast: 59 / 81 °F
Wind: 2 mph from North

Location: Lodz

Current Time: Jul 23, 2016 at 3:08:25 PM

Latest Report: Jul 23, 2016 at 2:00 PM


Visibility: 13 mi

Pressure: 30.11 "Hg

Humidity: 69%

Dew Point: 59 °F

Location of LódzLocation

Past Weather in Lódz — Graph

°F

Lódz Temperature Yesterday

Maximum temperature yesterday: 77 °F (at 4:00 PM)
Minimum temperature yesterday: 48 °F (at 5:00 AM)
Average temperature yesterday: 65 °F

High & Low Weather Summary for the Past Weeks

 TemperatureHumidityPressure
High89 °F (Jul 11, 1:00 PM)98% (Jul 13, 3:00 AM)30.22 "Hg (Jul 13, 3:00 AM)
Low47 °F (Jul 21, 5:00 AM)37% (Jul 8, 4:00 PM)29.53 "Hg (Jul 14, 3:00 PM)
Average65 °F76%29.98 "Hg
* Reported Jul 8 1:00 PM — Jul 23 1:00 PM, Lódz, Weather by CustomWeather, © 2016

Note: Actual official high and low records may vary slightly from our data, if they occured in-between our weather recording intervals... More about our weather records

Advertising

Lódz Weather History for the Previous 24 Hours

Scroll right to see more
 ConditionsComfort  
Time TempWeatherWind HumidityBarometerVisibility
1:00 PM
Sat, Jul 23
69 °FOvercast.N/A71%30.11 "Hg10 mi
12:00 PM69 °FOvercast.3 mph71%30.10 "Hg11 mi
11:00 AM68 °FOvercast.N/A71%30.09 "Hg12 mi
10:00 AM67 °FOvercast.N/A78%30.09 "Hg11 mi
9:00 AM65 °FOvercast.N/A86%30.09 "Hg7 mi
8:00 AM64 °FOvercast.1 mph91%30.09 "Hg8 mi
7:00 AM61 °FOvercast.1 mph95%30.09 "Hg7 mi
6:00 AM58 °FOvercast.1 mph96%30.08 "Hg7 mi
5:00 AM56 °FOvercast.1 mph96%30.09 "Hg7 mi
4:00 AM55 °FFog.1 mph94%30.08 "Hg7 mi
3:00 AM56 °FClear.1 mph96%30.08 "Hg6 mi
2:00 AM57 °FClear.1 mph95%30.07 "Hg8 mi
1:00 AM59 °FClear.No wind92%30.08 "Hg11 mi
12:00 AM62 °FClear.1 mph84%30.07 "Hg12 mi
11:00 PM
Fri, Jul 22
64 °FClear.2 mph78%30.06 "Hg12 mi
10:00 PM67 °FClear.3 mph71%30.05 "Hg12 mi
9:00 PM71 °FPassing clouds.5 mph59%30.03 "Hg12 mi
8:00 PM73 °FPassing clouds.5 mph51%30.01 "Hg12 mi
7:00 PM75 °FScattered clouds.3 mph46%30.01 "Hg12 mi
6:00 PM76 °FScattered clouds.5 mph42%30.00 "Hg12 mi
5:00 PM77 °FScattered clouds.5 mph41%29.99 "Hg12 mi
4:00 PM77 °FScattered clouds.6 mph42%30.00 "Hg12 mi
3:00 PM76 °FPassing clouds.3 mph40%30.01 "Hg12 mi
Weather by CustomWeather, © 2016

See weather overviewHow to use our weather pages